Weather Roundup
Issued by NWS Springfield, MO

Home | Current Version | Previous Version | Text Only | Print | Product List | Glossary On
Versions: 1 2 3 4 5 6 7 8 9 10 11 12 13 14 15 16 17 18 19 20 21 22 23 24 25 26 27 28 29 30 31 32 33 34 35 36 37 38 39 40 41 42 43 44 45 46 47 48 49 50
000
NZUS99 KSGF 160059
HRRSGF

HOURLY WEATHER
NATIONAL WEATHER SERVICE SPRINGFIELD MO
800 PM CDT MON SEP 15 2014

......SGF CWA......

CITY           SKY/WX    TMP DP  RH WIND       PRES   REMARKS
SPRINGFIELD    CLOUDY    73  66  78 N14       30.11R
JOPLIN         CLOUDY    70  68  93 VRB6      30.12R
WEST PLAINS    PTCLDY    73  66  78 S5        30.10S
ROLLA          CLOUDY    66  62  87 N8        30.11R
OSAGE BEACH    CLOUDY    66  61  82 N7        30.13R
BRANSON        MOCLDY    73  66  78 SW5       30.11F

......SURROUNDING SGF CWA......

CITY           SKY/WX    TMP DP  RH WIND       PRES   REMARKS
CHANUTE        CLOUDY    70  61  73 NE12      30.14R
PARSONS        MOCLDY    71  63  75 N6        30.13R
COFFEYVILLE    MOCLDY    71  68  90 N8        30.11R
EMPORIA        CLOUDY    64  58  80 NE6       30.17R
SILOAM SPRINGS PTCLDY    72  64  78 S6        30.13S
HARRISON AR    CLEAR     71  67  87 CALM      30.12S
NEAR YELLVILLE CLEAR     73  64  73 SW3       30.09S

......KANSAS AND MISSOURI......

CITY           SKY/WX    TMP DP  RH WIND       PRES   REMARKS
KANSAS CTY INT MOCLDY    59  52  77 N12       30.21R
DOWNTOWN KC    CLOUDY    63  52  67 NE14      30.19R
COLUMBIA       CLOUDY    64  60  87 N6        30.15R
SEDALIA        CLOUDY    65  60  84 N13       30.16R
ST JOSEPH      CLEAR     56  50  80 NE5       30.21S
ST LOUIS       CLOUDY    65  62  90 N10       30.11R
SPIRIT OF STL  CLOUDY    64  62  93 N5        30.11R
KIRKSVILLE     CLOUDY    57  52  83 N9        30.20R
WICHITA        MOCLDY    70  58  65 NE15      30.16R
TOPEKA         CLEAR     61  53  75 N8        30.20R
OLATHE         CLOUDY    61  53  75 N14       30.18R

......TENNESSEE......

CITY           SKY/WX    TMP DP  RH WIND       PRES   REMARKS
MEMPHIS        CLOUDY    77  63  61 CALM      30.11R
NASHVILLE      CLOUDY    68  64  87 S3        30.12R

......ARKANSAS.......

CITY           SKY/WX    TMP DP  RH WIND       PRES   REMARKS
FAYETTEVILLE   CLEAR     70  68  93 S3        30.13S
FT SMITH       CLOUDY    75  68  78 CALM      30.10S
LITTLE ROCK    MOCLDY    74  65  73 CALM      30.12S

......OKLAHOMA.......

CITY           SKY/WX    TMP DP  RH WIND       PRES   REMARKS
TULSA          MOCLDY    80  67  64 S13       30.06S
PONCA CITY     MOCLDY    75  66  73 NE14      30.11R
MCALESTER      PTCLDY    73  69  87 CALM      30.12R
OKLAHOMA CITY  MOCLDY    76  67  73 S8        30.10F

......IOWA............

CITY           SKY/WX    TMP DP  RH WIND       PRES   REMARKS
DES MOINES     PTCLDY    58  46  64 N6        30.22R
QUAD CITIES    CLEAR     55  48  77 N5        30.18R

......ILLINOIS........

CITY           SKY/WX    TMP DP  RH WIND       PRES   REMARKS
QUINCY         CLOUDY    61  56  83 N15       30.15R
CHICAGO        CLOUDY    57  51  80 N13       30.13R



USA.gov is the U.S. government's official web portal to all federal, state and local government web resources and services.